Regional Weather Roundup
Issued by NWS

Home | Current Version | Previous Version | Graphics & Text | Print | Product List | Glossary On
Versions: 1 2 3 4 5 6 7 8 9 10 11 12 13 14 15 16 17 18 19 20 21 22 23 24 25 26 27 28 29 30 31 32 33 34 35 36 37 38 39 40 41 42 43 44 45 46 47 48 49 50
000
ASUS43 KOAX 240002
RWRNE

WEATHER ROUNDUP FOR NEBRASKA
NATIONAL WEATHER SERVICE OMAHA NE
700 PM CDT SAT JUL 23 2016

NOTES: SATELLITE DATA IS BEING USED TO AUGMENT CLOUD COVER ABOVE
       12000 FEET.
       "FAIR" INDICATES FEW OR NO CLOUDS BELOW 12,000 FEET WITH NO
       SIGNIFICANT WEATHER AND/OR OBSTRUCTIONS TO VISIBILITY.

  * THESE STATIONS DO NOT REPORT WEATHER SUCH AS RAIN...SNOW OR FOG.

NEZ001>004-019>022-054>056-240100-
NEBRASKA PANHANDLE

CITY           SKY/WX    TMP DP  RH WIND       PRES   REMARKS
SCOTTSBLUFF    CLOUDY    93  58  30 E13       29.94F HX  92
6HR MIN TEMP:  91; 6HR MAX TEMP:  99;

ALLIANCE       CLOUDY    91  54  28 E7        29.94S
6HR MIN TEMP:  88; 6HR MAX TEMP:  94;

CHADRON        SUNNY     91  46  21 NE18      29.91S
6HR MIN TEMP:  90; 6HR MAX TEMP:  95;

KIMBALL        CLOUDY    76  55  47 E9        30.08R
SIDNEY         LGT RAIN  81  50  33 MISG      30.05F
6HR MIN TEMP:  75; 6HR MAX TEMP:  98; 6HR PCP: TRACE;

$$

NEZ057>060-069>072-079>082-240100-
SOUTHWEST NEBRASKA

CITY           SKY/WX    TMP DP  RH WIND       PRES   REMARKS
NORTH PLATTE   SUNNY     93  69  45 NE8       29.85S HX  98
6HR MIN TEMP:  85; 6HR MAX TEMP:  96;

IMPERIAL       SUNNY     94  63  35 NE9       29.89S HX  95
6HR MIN TEMP:  86; 6HR MAX TEMP:  98;

LEXINGTON      SUNNY     91  74  58 SE6       29.84F HX 100
MCCOOK         SUNNY     93  70  46 E9        29.84F HX  99
6HR MIN TEMP:  86; 6HR MAX TEMP:  95;

OGALLALA       SUNNY     96  52  22 NE9       29.89S HX  93
$$

NEZ005>010-023>029-035>040-094-240100-
NORTH CENTRAL NEBRASKA

CITY           SKY/WX    TMP DP  RH WIND       PRES   REMARKS
VALENTINE      SUNNY     91  52  26 N17G25    29.87S
6HR MIN TEMP:  91; 6HR MAX TEMP:  96;

AINSWORTH      SUNNY     88  62  42 N17G23    29.86R
BROKEN BOW     SUNNY     90  74  59 N6        29.84S HX  99
6HR MIN TEMP:  85; 6HR MAX TEMP:  92;

O`NEILL        SUNNY     94  70  45 NW7       29.78S HX 100
ORD            SUNNY     91  75  59 SW6       29.79S HX 101
6HR MIN TEMP:  87; 6HR MAX TEMP:  92;

THEDFORD       SUNNY     93  59  31 N10       29.89S HX  92
$$

NEZ041-046>049-061>064-073>077-083>087-240100-
SOUTH CENTRAL NEBRASKA

CITY           SKY/WX    TMP DP  RH WIND       PRES   REMARKS
GRAND ISLAND   SUNNY     92  73  53 W8        29.80S HX 100
6HR MIN TEMP:  90; 6HR MAX TEMP:  98;

AURORA         SUNNY     92  74  55 CALM      29.79S HX 102
HASTINGS       CLOUDY    93  74  53 NW5       29.80F HX 103
6HR MIN TEMP:  85; 6HR MAX TEMP:  98;

HEBRON         MOSUNNY   93  69  44 S13       29.77F HX  97
HOLDREGE       CLOUDY    89  75  62 NW5       29.83S HX  98
KEARNEY *      CLOUDY    93  72  49 NW10      29.83F HX 100
$$

NEZ011>018-030>034-042>045-240100-
NORTHEAST NEBRASKA

CITY           SKY/WX    TMP DP  RH WIND       PRES   REMARKS
NORFOLK        CLOUDY    89  74  60 SW13      29.76F HX  98
6HR MIN TEMP:  88; 6HR MAX TEMP:  92;

ALBION         SUNNY     89  74  60 SW9       29.78F HX  98
BLAIR          SUNNY     89  76  64 S8        29.78S HX 101
FREMONT        CLOUDY    88  74  64 SE5       29.77F HX  96
TEKAMAH        CLOUDY    89  76  65 S6        29.76S HX 100
6HR MIN TEMP:  85; 6HR MAX TEMP:  92;

WAYNE          CLOUDY    87  80  78 S8        29.76F HX 102
$$

NEZ050>053-065>068-078-088>093-240100-
SOUTHEAST NEBRASKA

CITY           SKY/WX    TMP DP  RH WIND       PRES   REMARKS
LINCOLN        SUNNY     93  74  53 S15G24    29.76F HX 103
6HR MIN TEMP:  89; 6HR MAX TEMP:  94;

OMAHA EPPLEY   MOSUNNY   92  74  55 S16       29.76F HX 101
6HR MIN TEMP:  85; 6HR MAX TEMP:  93;

BEATRICE       CLOUDY    94  70  45 S16G22    29.78F HX 100
FALLS CITY     CLOUDY    87  77  72 SE8       29.79F HX  99
6HR MIN TEMP:  87; 6HR MAX TEMP:  92;

NEBRASKA CITY  CLOUDY    87  78  72 S9        29.79F HX 100
PLATTSMOUTH    SUNNY     89  77  68 SE8       29.78F HX 101
$$

NEZ044-045-051>053-067-240100-
OMAHA AREA

CITY           SKY/WX    TMP DP  RH WIND       PRES   REMARKS
OMAHA EPPLEY   MOSUNNY   92  74  55 S16       29.76F HX 101
6HR MIN TEMP:  85; 6HR MAX TEMP:  93;

BLAIR          SUNNY     89  76  64 S8        29.78S HX 101
FREMONT        CLOUDY    88  74  64 SE5       29.77F HX  96
MILLARD        SUNNY     91  75  60 S6        29.76F HX 101
OFFUTT AFB     SUNNY     91  76  61 S12       29.77F HX 102
PLATTSMOUTH    SUNNY     89  77  68 SE8       29.78F HX 101
WAHOO          FAIR      90  78  67 SE6       29.77S HX 104
$$




USA.gov is the U.S. government's official web portal to all federal, state and local government web resources and services.